Regional Weather Roundup
Issued by NWS

Home | Current Version | Previous Version | Text Only | Print | Product List | Glossary On
Versions: 1 2 3 4 5 6 7 8 9 10 11 12 13 14 15 16 17 18 19 20 21 22 23 24 25 26 27 28 29 30 31 32 33 34 35 36 37 38 39 40 41 42 43 44 45 46 47 48 49 50
000
ASUS45 KREV 211410
RWRNV
NEVADA REGIONAL WEATHER ROUNDUP
NATIONAL WEATHER SERVICE RENO NV
700 AM PDT THU AUG 21 2014

NOTE: "FAIR" INDICATES FEW OR NO CLOUDS BELOW 12,000 FEET WITH NO
SIGNIFICANT WEATHER AND/OR OBSTRUCTIONS TO VISIBILITY.

NVZ001-003-004-211500-
WESTERN NEVADA

CITY           SKY/WX    TMP DP  RH WIND       PRES   REMARKS
RENO           PTCLDY    59  41  51 CALM      30.09R
CARSON CITY    FAIR      55  41  58 CALM      30.09R
MINDEN         FAIR      48  39  71 E3        30.11
SLIDE MTN        N/A     46  32  57 W8          N/A
PYRAMID LAKE     N/A     68 N/A N/A S6          N/A
FALLON         PTCLDY    65  36  34 S6        30.03R
LOVELOCK       CLEAR     58  38  47 E3        30.00R
HAWTHORNE      CLEAR     63  37  39 CALM      30.06R
$$

NVZ002-CAZ072-073-211500-
NORTHERN AND CENTRAL SIERRA

CITY           SKY/WX    TMP DP  RH WIND       PRES   REMARKS
S. LAKE TAHOE  CLEAR     45  38  76 CALM      30.17R
TRUCKEE        CLEAR     39  37  93 CALM      30.17R
SQUAW VLY 8000   N/A     52  32  46 VRB10       N/A
SUSANVILLE     CLEAR     52  37  58 CALM      30.07R
BLUE CANYON    CLEAR     61  38  42 E3        30.13R
MAMMOTH LAKES  FAIR      43  30  61 CALM      30.23R
BRIDGEPORT     FAIR      45  34  65 CALM      30.19R
$$

NVZ030-031-036-211500-
NORTHERN NEVADA

CITY           SKY/WX    TMP DP  RH WIND       PRES   REMARKS
ELKO           CLOUDY    63  48  58 NE5       30.05R
WINNEMUCCA     CLEAR     64  40  41 W8        30.02R
WENDOVER       CLOUDY    66  50  55 NE14      30.05R
$$

NVZ035-037-211500-
CENTRAL NEVADA

CITY           SKY/WX    TMP DP  RH WIND       PRES   REMARKS
ELY            PTSUNNY   57  40  52 S12       30.19R
EUREKA           N/A     63  36  36 SE9       30.13R
$$

NVZ013-014-211500-
SOUTH CENTRAL NEVADA

CITY           SKY/WX    TMP DP  RH WIND       PRES   REMARKS
TONOPAH        PTCLDY    56  32  40 N6        30.15R
$$

NVZ017-020-022-211500-
SOUTHERN NEVADA

CITY           SKY/WX    TMP DP  RH WIND       PRES   REMARKS
LAS VEGAS      MOSUNNY   77  49  37 S5        29.92R
N. LAS VEGAS   SUNNY     73  48  41 N6        29.95R
NELLIS AFB     SUNNY     73  53  49 E3        29.94R
HENDERSON      SUNNY     70  52  52 S6        29.99R
MERCURY        NOT AVBL
$$


USA.gov is the U.S. government's official web portal to all federal, state and local government web resources and services.